SL-4 R/B (44111 NORAD) Tracking and Keplerian Element Data

This shows tracking and keplerian element data for the satellite.

Feedback or suggestion? Click here.




ElementValue
Catalog44111
NameSL-4 R/B
Epoch Orbit43
Epoch Day97.14506545
Epoch Year2019
RAAN352.8215
Inclination51.6476
Eccentricity0.0002964
Argument of Perigee103.1589
Mean Anonmoly257.2581
Mean Motion16.4688797
Decay Rate0.13505106
L11 44111U 19019B 19097.14506545 .13505106 12580-4 28027-3 0 9990
L22 44111 51.6476 352.8215 0002964 103.1589 257.2581 16.46887970 439

Live tracking and technical data element details for SL-4 R/B (NORAD 44111). SL-4 R/B can be tracked NOW for your location showing map with azimuth and elevation plus other details from your city location.

Track the satellite on the map from your city or location and see movement details for azimuth, elevation, latitude, longitude, range, height, and movement on the map or in text.







IsCatalogInMostPopularTable: catalog: 44111, numindb: 5
Update: records affected: 1



GetName: 44111 SL-4 R/B

Hit Count: updated at: Tue, 23 Apr 2019 01:53:02 GMT